Regional Weather Roundup
Issued by NWS Cleveland, OH

Home | Current Version | Previous Version | Graphics & Text | Print | Product List | Glossary On
Versions: 1 2 3 4 5 6 7 8 9 10 11 12 13 14 15 16 17 18 19 20 21 22 23 24 25 26 27 28 29 30 31 32 33 34 35 36 37 38 39 40 41 42 43 44 45 46 47 48 49 50
928
ASUS41 KCLE 262002
RWRCLE
OHIO REGIONAL WEATHER ROUNDUP
NATIONAL WEATHER SERVICE CLEVELAND, OH
300 PM EST SUN FEB 26 2017

NOTE: "FAIR" INDICATES FEW OR NO CLOUDS BELOW 12,000 FEET WITH NO
SIGNIFICANT WEATHER AND/OR OBSTRUCTIONS TO VISIBILITY.

OHZ001>008-015>018-024>027-034-035-043-044-262100-
   NORTHWEST OHIO

CITY           SKY/WX    TMP DP  RH WIND       PRES   REMARKS
DEFIANCE       PTSUNNY   39  20  46 SW14G22   30.05F
FINDLAY        SUNNY     43  20  39 SW22      30.07F
TOLEDO EXPRESS SUNNY     41  18  39 SW20G29   30.04F
TOLEDO EXEC    SUNNY     42  20  41 SW22      30.06F
LIMA           SUNNY     42  21  43 SW22G28   30.07F
$$

OHZ009>014-019>023-028>033-038-089-262100-
   NORTHEAST OHIO

CITY           SKY/WX    TMP DP  RH WIND       PRES   REMARKS
CLE-HOPKINS    SUNNY     40  17  39 SW14G22   30.11F
CLE-LAKEFRONT  SUNNY     41  17  38 SW16G24   30.09F
CUY CO. ARPT   SUNNY     39  19  45 S12G22    30.09F
LORAIN-ELYRIA  SUNNY     38  20  48 SW20      30.09F
ASHTABULA      SUNNY     35  18  49 SW13      30.10F WCI  26
AKRON-CANTON   MOSUNNY   38  17  42 SW10G21   30.10F
WOOSTER        SUNNY     38  21  50 SW16G22   30.10F
MANSFIELD      SUNNY     39  19  44 SW15      30.08
YOUNGSTOWN     MOSUNNY   35  17  47 SW14G20   30.10F WCI  26
$$

OHZ042-051>053-060>062-070>072-077>081-262100-
  SOUTHWEST OHIO

CITY           SKY/WX    TMP DP  RH WIND       PRES   REMARKS
CINC-COVINGTON MOSUNNY   45  13  27 SW9G16    30.14F
CINC-LUNKEN    SUNNY     47  19  33 SW14G21   30.17F
HAMILTON       SUNNY     47  16  29 S10G17    30.16F
DAYTON         PTSUNNY   43  17  35 SW15      30.13F
WRIGHT-PAT AFB SUNNY     43  13  29 SW17      30.13F
DAYTON GENERAL SUNNY     43  16  33 S16       30.13F
WILMINGTON     SUNNY     42  18  37 SW14      30.14F
$$

OHZ036-037-039>041-045>050-054>059-063>069-073>076-082>088-262100-
  CENTRAL AND SOUTHEAST OHIO

CITY           SKY/WX    TMP DP  RH WIND       PRES   REMARKS
COLUMBUS       MOSUNNY   42  19  39 S15       30.15F
OSU AIRPORT    SUNNY     42  20  41 SW13G18   30.13F
BOLTON FIELD   SUNNY     41  21  45 SW14G22   30.16F
RICKENBACK AFB NOT AVBL
NEWARK         SUNNY     40  20  44 SW9       30.14F
MARION         SUNNY     41  18  39 SW14      30.10F
LANCASTER      SUNNY     42  18  37 S9        30.16F
ZANESVILLE     SUNNY     41  18  39 VRB3      30.15F
NEW PHILLY     NOT AVBL
$$




USA.gov is the U.S. government's official web portal to all federal, state and local government web resources and services.